Zurück zum Katalog

LT-1 01A

AktivWissenschaftSSO
NORAD 51284·PAYLOAD·🇨🇳 China

Gestartet Jan 25, 2022 von Jiuquan Satellite Launch Center

Loading…

Nächste Überflüge (nächste 24 Stunden)

TLE

AktuellSource: Space-Track

Epoche: Sep 14, 2026, 14:13 UTC

1 51284U 22007A   26257.59295519  .00000398  00000-0  48819-4 0  9992
2 51284  97.8111 263.7481 0001592  90.2509 269.8890 14.88420086251777

Verfolge LT-1 01A in Echtzeit mit AllMySat

Download on the App Store